Tracking 30918 objects as of 2-Jul-2025
HD Live streaming from Space Station
objects crossing your sky now

STARLINK-31083

Track STARLINK-31083 now!
10-day predictions
STARLINK-31083 is classified as:


NORAD ID: 58670
Int'l Code: 2023-211D
Perigee: 490.0 km
Apogee: 490.4 km
Inclination: 43.0 °
Period: 94.3 minutes
Semi major axis: 6861 km
RCS: Unknown
Launch date: December 29, 2023
Source: United States (US)
Launch site: AIR FORCE EASTERN TEST RANGE (AFETR)
Your satellite tracking list
STARLINK-31282
Track 1 satellite(s)




NASA's NSSDC Master Catalog

Two Line Element Set (TLE):
1 58670U 23211D   25182.37650426  .00001917  00000-0  79157-4 0  9997
2 58670  43.0008  64.2044 0000334 213.1121 146.9710 15.27577897 84035
Source of the keplerian elements: AFSPC